Time,TemperatureF,DewpointF,PressureIn,WindDirection,WindDirectionDegrees,WindSpeedMPH,WindSpeedGustMPH,Humidity,HourlyPrecipIn,Conditions,Clouds,dailyrainin,SolarRadiationWatts/m^2,SoftwareType,DateUTC
2013-12-21 00:22:00,13.0,10.0,-100.00,North,5,1.0,2.0,88,0.00,,,0.00,0.000000,,2013-12-21 05:22:00,
2013-12-21 00:33:00,13.0,10.0,-100.00,North,5,1.0,2.0,88,0.00,,,0.00,0.000000,,2013-12-21 05:33:00,
2013-12-21 00:42:00,13.0,10.0,-100.00,North,5,1.0,2.0,88,0.00,,,0.00,0.000000,,2013-12-21 05:42:00,
2013-12-21 00:52:00,13.0,10.0,-100.00,North,5,1.0,2.0,88,0.00,,,0.00,0.000000,,2013-12-21 05:52:00,
2013-12-21 01:22:00,13.0,10.0,-100.00,North,-999,0.0,0.0,88,0.00,,,0.00,0.000000,,2013-12-21 06:22:00,
2013-12-21 01:32:00,13.0,10.0,-100.00,North,-999,0.0,0.0,88,0.00,,,0.00,0.000000,,2013-12-21 06:32:00,
2013-12-21 01:42:00,13.0,10.0,-100.00,North,-999,0.0,0.0,88,0.00,,,0.00,0.000000,,2013-12-21 06:42:00,
2013-12-21 01:52:00,13.0,10.0,-100.00,North,-999,0.0,0.0,88,0.00,,,0.00,0.000000,,2013-12-21 06:52:00,
2013-12-21 02:22:00,14.0,11.0,-100.00,North,-999,0.0,0.0,88,0.00,,,0.00,0.000000,,2013-12-21 07:22:00,
2013-12-21 02:32:00,14.0,11.0,-100.00,North,-999,0.0,0.0,88,0.00,,,0.00,0.000000,,2013-12-21 07:32:00,
2013-12-21 02:42:00,14.0,11.0,-100.00,North,-999,0.0,0.0,88,0.00,,,0.00,0.000000,,2013-12-21 07:42:00,
2013-12-21 02:53:00,14.0,11.0,-100.00,North,-999,0.0,0.0,88,0.00,,,0.00,0.000000,,2013-12-21 07:53:00,
2013-12-21 03:22:00,14.0,11.0,-100.00,North,-999,0.0,0.0,88,0.00,,,0.00,0.000000,,2013-12-21 08:22:00,
2013-12-21 03:32:00,14.0,11.0,-100.00,North,-999,0.0,0.0,88,0.00,,,0.00,0.000000,,2013-12-21 08:32:00,
2013-12-21 03:42:00,14.0,11.0,-100.00,North,-999,0.0,0.0,88,0.00,,,0.00,0.000000,,2013-12-21 08:42:00,
2013-12-21 03:52:00,14.0,11.0,-100.00,North,-999,0.0,0.0,88,0.00,,,0.00,0.000000,,2013-12-21 08:52:00,
2013-12-21 04:22:00,14.0,11.0,-100.00,North,-999,0.0,0.0,88,0.00,,,0.00,0.000000,,2013-12-21 09:22:00,
2013-12-21 04:33:00,14.0,11.0,-100.00,North,-999,0.0,0.0,88,0.00,,,0.00,0.000000,,2013-12-21 09:33:00,
2013-12-21 04:43:00,14.0,11.0,-100.00,North,-999,0.0,0.0,88,0.00,,,0.00,0.000000,,2013-12-21 09:43:00,
2013-12-21 04:54:00,14.0,11.0,-100.00,North,-999,0.0,0.0,88,0.00,,,0.00,0.000000,,2013-12-21 09:54:00,
2013-12-21 05:23:00,15.0,12.0,-100.00,North,-999,0.0,0.0,88,0.00,,,0.00,0.000000,,2013-12-21 10:23:00,
2013-12-21 05:33:00,15.0,12.0,-100.00,North,-999,0.0,0.0,88,0.00,,,0.00,0.000000,,2013-12-21 10:33:00,
2013-12-21 05:43:00,15.0,12.0,-100.00,North,-999,0.0,0.0,88,0.00,,,0.00,0.000000,,2013-12-21 10:43:00,
2013-12-21 05:53:00,15.0,12.0,-100.00,North,-999,0.0,0.0,88,0.00,,,0.00,0.000000,,2013-12-21 10:53:00,
2013-12-21 06:23:00,14.0,11.0,-100.00,North,-999,0.0,0.0,88,0.00,,,0.00,0.000000,,2013-12-21 11:23:00,
2013-12-21 06:33:00,14.0,11.0,-100.00,North,-999,0.0,0.0,88,0.00,,,0.00,0.000000,,2013-12-21 11:33:00,
2013-12-21 06:42:00,14.0,11.0,-100.00,North,-999,0.0,0.0,88,0.00,,,0.00,0.000000,,2013-12-21 11:42:00,
2013-12-21 06:53:00,14.0,11.0,-100.00,North,-999,0.0,0.0,88,0.00,,,0.00,0.000000,,2013-12-21 11:53:00,
2013-12-21 07:22:00,14.0,11.0,-100.00,North,-999,0.0,0.0,88,0.00,,,0.00,0.000000,,2013-12-21 12:22:00,
2013-12-21 07:32:00,14.0,11.0,-100.00,North,-999,0.0,0.0,88,0.00,,,0.00,0.000000,,2013-12-21 12:32:00,
2013-12-21 07:42:00,14.0,11.0,-100.00,North,-999,0.0,0.0,88,0.00,,,0.00,0.000000,,2013-12-21 12:42:00,
2013-12-21 07:52:00,14.0,11.0,-100.00,North,-999,0.0,0.0,88,0.00,,,0.00,0.000000,,2013-12-21 12:52:00,
2013-12-21 08:22:00,14.0,11.0,-100.00,North,-999,0.0,0.0,88,0.00,,,0.00,0.000000,,2013-12-21 13:22:00,
2013-12-21 08:32:00,14.0,11.0,-100.00,North,-999,0.0,0.0,88,0.00,,,0.00,0.000000,,2013-12-21 13:32:00,
2013-12-21 08:42:00,14.0,11.0,-100.00,North,-999,0.0,0.0,88,0.00,,,0.00,0.000000,,2013-12-21 13:42:00,
2013-12-21 08:52:00,14.0,11.0,-100.00,North,-999,0.0,0.0,88,0.00,,,0.00,0.000000,,2013-12-21 13:52:00,
2013-12-21 09:22:00,15.0,12.0,-100.00,North,-999,0.0,0.0,88,0.00,,,0.00,0.000000,,2013-12-21 14:22:00,
2013-12-21 09:32:00,15.0,12.0,-100.00,North,-999,0.0,0.0,88,0.00,,,0.00,0.000000,,2013-12-21 14:32:00,
2013-12-21 09:42:00,15.0,12.0,-100.00,North,-999,0.0,0.0,88,0.00,,,0.00,0.000000,,2013-12-21 14:42:00,
2013-12-21 09:53:00,15.0,12.0,-100.00,North,-999,0.0,0.0,88,0.00,,,0.00,0.000000,,2013-12-21 14:53:00,
2013-12-21 10:22:00,17.0,14.0,-100.00,WSW,247,1.0,2.0,87,0.00,,,0.00,6.000000,,2013-12-21 15:22:00,
2013-12-21 10:33:00,17.0,14.0,-100.00,WSW,247,1.0,2.0,87,0.00,,,0.00,6.000000,,2013-12-21 15:33:00,
2013-12-21 10:43:00,17.0,14.0,-100.00,WSW,247,1.0,2.0,87,0.00,,,0.00,6.000000,,2013-12-21 15:43:00,
2013-12-21 10:53:00,17.0,14.0,-100.00,WSW,247,1.0,2.0,87,0.00,,,0.00,6.000000,,2013-12-21 15:53:00,
2013-12-21 11:23:00,21.0,16.0,-100.00,SW,221,1.0,2.0,82,0.00,,,0.00,20.000000,,2013-12-21 16:23:00,
2013-12-21 11:34:00,21.0,16.0,-100.00,SW,221,1.0,2.0,82,0.00,,,0.00,20.000000,,2013-12-21 16:34:00,
2013-12-21 11:43:00,21.0,16.0,-100.00,SW,221,1.0,2.0,82,0.00,,,0.00,20.000000,,2013-12-21 16:43:00,
2013-12-21 11:53:00,21.0,16.0,-100.00,SW,221,1.0,2.0,82,0.00,,,0.00,20.000000,,2013-12-21 16:53:00,
2013-12-21 12:22:00,24.0,17.0,-100.00,SW,220,2.0,4.0,75,0.00,,,0.00,34.000000,,2013-12-21 17:22:00,
2013-12-21 12:33:00,24.0,17.0,-100.00,SW,220,2.0,4.0,75,0.00,,,0.00,34.000000,,2013-12-21 17:33:00,
2013-12-21 12:43:00,24.0,17.0,-100.00,SW,220,2.0,4.0,75,0.00,,,0.00,34.000000,,2013-12-21 17:43:00,
2013-12-21 12:52:00,24.0,17.0,-100.00,SW,220,2.0,4.0,75,0.00,,,0.00,34.000000,,2013-12-21 17:52:00,
2013-12-21 13:23:00,25.0,18.0,-100.00,NW,313,2.0,4.0,73,0.00,,,0.00,39.000000,,2013-12-21 18:23:00,
2013-12-21 13:32:00,25.0,18.0,-100.00,NW,313,2.0,4.0,73,0.00,,,0.00,39.000000,,2013-12-21 18:32:00,
2013-12-21 13:42:00,25.0,18.0,-100.00,NW,313,2.0,4.0,73,0.00,,,0.00,39.000000,,2013-12-21 18:42:00,
2013-12-21 13:52:00,25.0,18.0,-100.00,NW,313,2.0,4.0,73,0.00,,,0.00,39.000000,,2013-12-21 18:52:00,
2013-12-21 14:22:00,27.0,17.0,-100.00,ENE,64,2.0,4.0,66,0.00,,,0.00,42.000000,,2013-12-21 19:22:00,
2013-12-21 14:32:00,27.0,17.0,-100.00,ENE,64,2.0,4.0,66,0.00,,,0.00,42.000000,,2013-12-21 19:32:00,
2013-12-21 14:42:00,27.0,17.0,-100.00,ENE,64,2.0,4.0,66,0.00,,,0.00,42.000000,,2013-12-21 19:42:00,
2013-12-21 14:52:00,27.0,17.0,-100.00,ENE,64,2.0,4.0,66,0.00,,,0.00,42.000000,,2013-12-21 19:52:00,
2013-12-21 15:23:00,24.0,16.0,-100.00,NNE,29,1.0,4.0,71,0.00,,,0.00,20.000000,,2013-12-21 20:23:00,
2013-12-21 15:32:00,24.0,16.0,-100.00,NNE,29,1.0,4.0,71,0.00,,,0.00,20.000000,,2013-12-21 20:32:00,
2013-12-21 15:42:00,24.0,16.0,-100.00,NNE,29,1.0,4.0,71,0.00,,,0.00,20.000000,,2013-12-21 20:42:00,
2013-12-21 15:52:00,24.0,16.0,-100.00,NNE,29,1.0,4.0,71,0.00,,,0.00,20.000000,,2013-12-21 20:52:00,
2013-12-21 16:22:00,24.0,16.0,-100.00,NNW,348,2.0,4.0,72,0.00,,,0.00,17.000000,,2013-12-21 21:22:00,
2013-12-21 16:33:00,24.0,16.0,-100.00,NNW,348,2.0,4.0,72,0.00,,,0.00,17.000000,,2013-12-21 21:33:00,
2013-12-21 16:43:00,24.0,16.0,-100.00,NNW,348,2.0,4.0,72,0.00,,,0.00,17.000000,,2013-12-21 21:43:00,
2013-12-21 16:53:00,24.0,16.0,-100.00,NNW,348,2.0,4.0,72,0.00,,,0.00,17.000000,,2013-12-21 21:53:00,
2013-12-21 17:23:00,22.0,17.0,-100.00,North,0,1.0,6.0,80,0.00,,,-99.99,7.000000,,2013-12-21 22:23:00,
2013-12-21 17:33:00,22.0,17.0,-100.00,North,0,1.0,6.0,80,0.00,,,-99.99,7.000000,,2013-12-21 22:33:00,
2013-12-21 17:42:00,22.0,17.0,-100.00,North,0,1.0,6.0,80,0.00,,,-99.99,7.000000,,2013-12-21 22:42:00,
2013-12-21 17:53:00,22.0,17.0,-100.00,North,0,1.0,6.0,80,0.00,,,-99.99,7.000000,,2013-12-21 22:53:00,
2013-12-21 18:22:00,20.0,16.0,-100.00,North,8,1.0,4.0,85,0.00,,,0.00,0.000000,,2013-12-21 23:22:00,
2013-12-21 18:33:00,20.0,16.0,-100.00,North,8,1.0,4.0,85,0.00,,,0.00,0.000000,,2013-12-21 23:33:00,
2013-12-21 18:43:00,20.0,16.0,-100.00,North,8,1.0,4.0,85,0.00,,,0.00,0.000000,,2013-12-21 23:43:00,
2013-12-21 18:53:00,20.0,16.0,-100.00,North,8,1.0,4.0,85,0.00,,,0.00,0.000000,,2013-12-21 23:53:00,
2013-12-21 19:22:00,20.0,17.0,-100.00,NNE,31,1.0,3.0,88,0.00,,,0.00,0.000000,,2013-12-22 00:22:00,
2013-12-21 19:32:00,20.0,17.0,-100.00,NNE,31,1.0,3.0,88,0.00,,,0.00,0.000000,,2013-12-22 00:32:00,
2013-12-21 19:42:00,20.0,17.0,-100.00,NNE,31,1.0,3.0,88,0.00,,,0.00,0.000000,,2013-12-22 00:42:00,
2013-12-21 19:52:00,20.0,17.0,-100.00,NNE,31,1.0,3.0,88,0.00,,,0.00,0.000000,,2013-12-22 00:52:00,
2013-12-21 20:22:00,19.0,16.0,-100.00,NNE,24,1.0,4.0,87,0.00,,,0.00,0.000000,,2013-12-22 01:22:00,
2013-12-21 20:32:00,19.0,16.0,-100.00,NNE,24,1.0,4.0,87,0.00,,,0.00,0.000000,,2013-12-22 01:32:00,
2013-12-21 20:42:00,19.0,16.0,-100.00,NNE,24,1.0,4.0,87,0.00,,,0.00,0.000000,,2013-12-22 01:42:00,
2013-12-21 20:52:00,19.0,16.0,-100.00,NNE,24,1.0,4.0,87,0.00,,,0.00,0.000000,,2013-12-22 01:52:00,
2013-12-21 21:22:00,17.0,15.0,-100.00,NE,43,1.0,2.0,90,0.00,,,0.00,0.000000,,2013-12-22 02:22:00,
2013-12-21 21:32:00,17.0,15.0,-100.00,NE,43,1.0,2.0,90,0.00,,,0.00,0.000000,,2013-12-22 02:32:00,
2013-12-21 21:42:00,17.0,15.0,-100.00,NE,43,1.0,2.0,90,0.00,,,0.00,0.000000,,2013-12-22 02:42:00,
2013-12-21 21:52:00,17.0,15.0,-100.00,NE,43,1.0,2.0,90,0.00,,,0.00,0.000000,,2013-12-22 02:52:00,
2013-12-21 22:22:00,18.0,16.0,-100.00,NNE,33,1.0,5.0,91,0.00,,,0.00,0.000000,,2013-12-22 03:22:00,
2013-12-21 22:33:00,18.0,16.0,-100.00,NNE,33,1.0,5.0,91,0.00,,,0.00,0.000000,,2013-12-22 03:33:00,
2013-12-21 22:43:00,18.0,16.0,-100.00,NNE,33,1.0,5.0,91,0.00,,,0.00,0.000000,,2013-12-22 03:43:00,
2013-12-21 22:54:00,18.0,16.0,-100.00,NNE,33,1.0,5.0,91,0.00,,,0.00,0.000000,,2013-12-22 03:54:00,
2013-12-21 23:23:00,20.0,18.0,-100.00,NE,37,2.0,8.0,92,0.00,,,0.00,0.000000,,2013-12-22 04:23:00,
2013-12-21 23:34:00,20.0,18.0,-100.00,NE,37,2.0,8.0,92,0.00,,,0.00,0.000000,,2013-12-22 04:34:00,
2013-12-21 23:43:00,20.0,18.0,-100.00,NE,37,2.0,8.0,92,0.00,,,0.00,0.000000,,2013-12-22 04:43:00,
2013-12-21 23:53:00,20.0,18.0,-100.00,NE,37,2.0,8.0,92,0.00,,,0.00,0.000000,,2013-12-22 04:53:00,